Date_and_time,latitude,longitude,wind_speed,RelWindDirFrom,WindDirFrom,air_pressure,air_temperature,relative_humidity,Temp,platform_speed_wrt_ground,air_pressure_at_mean_sea_level,platform_orientation
2018-08-23 23:50,50.6304333333333,-96.98076,15.7,18.2,7,978.91,21.4,72,20.46,0.0,1004.48,54.7
2018-08-24 00:00,50.630435,-96.9807616666667,15.4,17.7,6,978.96,21.4,71,20.48,0.0,1004.54,131.7
2018-08-24 00:10,50.630435,-96.9807633333333,15.0,17.6,8,978.98,21.3,72,20.52,0.0,1004.56,131.7
2018-08-24 00:20,50.630435,-96.980765,15.3,18.1,10,978.92,21.3,72,20.52,0.0,1004.50,131.7
2018-08-24 00:30,50.6304366666667,-96.980765,15.0,17.9,13,979.12,21.3,69,20.51,0.0,1004.70,131.7
2018-08-24 00:40,50.6304366666667,-96.980765,15.1,18.2,12,979.20,21.2,69,20.56,0.0,1004.78,131.7
2018-08-24 00:50,50.63044,-96.9807783333333,16.6,19.4,9,979.10,21.2,67,20.58,0.0,1004.68,131.7
2018-08-24 01:00,50.6304366666667,-96.98077,17.3,20.8,9,979.12,21.1,66,20.58,0.0,1004.71,113.6
2018-08-24 01:10,50.6304383333333,-96.9807683333333,17.2,20.7,6,979.30,21.1,64,20.59,0.0,1004.90,113.6
2018-08-24 01:20,50.63044,-96.9807683333333,16.3,19.4,9,979.56,21.0,64,20.59,0.0,1005.17,113.6
2018-08-24 01:30,50.63044,-96.9807683333333,17.8,21.7,17,979.58,20.9,63,20.56,0.0,1005.20,113.6
2018-08-24 01:40,50.63044,-96.9807666666667,19.1,21.8,14,979.50,20.8,63,20.53,0.0,1005.12,113.6
2018-08-24 01:50,50.63044,-96.9807683333333,19.0,22.8,12,979.57,20.7,65,20.48,0.0,1005.20,113.6
2018-08-24 02:00,50.63044,-96.9807683333333,18.5,22.0,11,979.64,20.6,66,20.44,0.0,1005.28,90.0
2018-08-24 02:10,50.63044,-96.9807683333333,19.3,22.4,12,979.76,20.5,66,20.44,0.0,1005.41,90.0
2018-08-24 02:20,50.6304416666667,-96.9807666666667,19.0,23.6,14,979.80,20.5,64,20.44,0.0,1005.45,90.0
2018-08-24 02:30,50.6304366666667,-96.9807683333333,19.6,22.7,14,979.82,20.4,63,20.39,0.0,1005.48,90.0
2018-08-24 02:40,50.6304383333333,-96.980765,19.8,23.1,15,979.80,20.2,64,20.35,0.0,1005.47,90.0
2018-08-24 02:50,50.630435,-96.9807666666667,20.2,22.8,14,979.77,20.1,64,20.33,0.0,1005.44,90.0
2018-08-24 03:00,50.630435,-96.9807666666667,19.2,22.2,15,979.81,20.0,66,20.33,0.0,1005.49,270.0
2018-08-24 03:10,50.630435,-96.98077,18.8,22.5,22,979.75,20.0,68,20.35,0.0,1005.43,270.0
2018-08-24 03:20,50.630435,-96.98077,17.8,21.0,25,979.79,20.0,70,20.35,0.0,1005.48,270.0
2018-08-24 03:30,50.630435,-96.9807683333333,18.0,21.1,23,979.73,20.1,69,20.39,0.0,1005.42,270.0
2018-08-24 03:40,50.630435,-96.98077,18.3,21.0,29,979.69,20.1,66,20.40,0.0,1005.38,270.0
2018-08-24 03:50,50.630435,-96.9807683333333,19.1,22.1,35,979.68,20.1,63,20.42,0.0,1005.37,270.0
2018-08-24 04:00,50.630435,-96.9807683333333,18.0,21.7,36,979.63,20.0,63,20.43,0.0,1005.34,0.0
2018-08-24 04:10,50.630435,-96.98077,17.2,20.4,30,979.61,19.8,66,20.43,0.0,1005.32,0.0
2018-08-24 04:20,50.6304366666667,-96.98077,18.0,20.1,26,979.53,19.5,65,20.43,0.0,1005.25,0.0
2018-08-24 04:30,50.6304366666667,-96.98077,17.3,20.3,33,979.51,19.4,63,20.41,0.0,1005.25,0.0
2018-08-24 04:40,50.630435,-96.98077,16.6,19.3,30,979.46,19.4,65,20.40,0.0,1005.21,0.0
2018-08-24 04:50,50.630435,-96.98077,16.3,18.3,30,979.38,19.3,65,20.40,0.0,1005.13,0.0
2018-08-24 05:00,50.6304333333333,-96.98077,15.9,18.2,29,979.28,19.2,67,20.40,0.0,1005.03,360.0
2018-08-24 05:10,50.630405,-96.980775,15.2,17.3,26,979.30,19.1,67,20.39,0.0,1005.06,360.0
2018-08-24 05:20,50.630415,-96.9807716666667,15.3,17.3,27,979.26,19.1,67,20.38,0.0,1005.01,360.0
2018-08-24 05:30,50.6304233333333,-96.98077,15.0,17.3,28,979.21,19.0,68,20.38,0.0,1004.96,360.0
2018-08-24 05:40,50.630425,-96.9807733333333,15.7,17.1,26,979.22,18.9,68,20.37,0.0,1004.97,360.0
2018-08-24 05:50,50.6304266666667,-96.980775,14.1,16.5,25,979.23,18.8,69,20.36,0.0,1005.00,360.0
2018-08-24 06:00,50.630425,-96.980775,13.9,15.7,26,979.24,18.8,69,20.35,0.0,1005.02,221.3
2018-08-24 06:10,50.630425,-96.980775,13.3,15.0,23,979.26,18.7,69,20.34,0.0,1005.05,221.3
2018-08-24 06:20,50.6304266666667,-96.980775,14.1,16.5,21,979.27,18.6,69,20.30,0.0,1005.08,221.3
2018-08-24 06:30,50.6304266666667,-96.980775,14.4,16.8,21,979.24,18.5,69,20.31,0.0,1005.05,221.3
2018-08-24 06:40,50.6304283333333,-96.980775,14.2,16.4,22,979.19,18.5,70,20.32,0.0,1005.00,221.3
2018-08-24 06:50,50.6304566666667,-96.9807616666667,13.3,15.3,23,979.19,18.4,71,20.33,0.0,1005.01,221.3
2018-08-24 07:00,50.6304216666667,-96.98077,13.5,15.0,21,979.19,18.3,70,20.33,0.0,1005.02,161.1
2018-08-24 07:10,50.63043,-96.9807766666667,13.3,16.1,22,979.20,18.2,71,20.31,0.0,1005.04,161.1
2018-08-24 07:20,50.63043,-96.9807716666667,13.8,15.8,20,979.16,18.1,71,20.29,0.0,1005.00,161.1
2018-08-24 07:30,50.6304316666667,-96.980775,14.2,16.8,21,979.09,18.0,72,20.28,0.0,1004.93,161.1
2018-08-24 07:40,50.63043,-96.98077,14.3,17.0,24,979.00,17.9,71,20.27,0.0,1004.85,161.1
2018-08-24 07:50,50.6304283333333,-96.98077,13.7,15.5,20,979.07,17.8,72,20.26,0.0,1004.93,161.1
2018-08-24 08:00,50.6304233333333,-96.9807733333333,13.0,15.0,19,979.10,17.8,73,20.25,0.0,1004.96,228.3
2018-08-24 08:10,50.63044,-96.9807733333333,13.1,15.3,18,979.13,17.8,72,20.24,0.0,1005.00,228.3
2018-08-24 08:20,50.6304533333333,-96.9807883333333,13.7,16.0,12,979.14,17.7,73,20.24,0.0,1005.02,228.3
2018-08-24 08:30,50.6304383333333,-96.98077,14.2,16.8,11,979.11,17.7,73,20.23,0.0,1004.99,228.3
2018-08-24 08:40,50.630435,-96.98077,14.4,16.9,9,979.10,17.6,74,20.22,0.0,1004.99,228.3
2018-08-24 08:50,50.6304333333333,-96.98077,14.5,17.0,10,979.06,17.6,74,20.22,0.0,1004.96,228.3
2018-08-24 09:00,50.630455,-96.9807816666667,14.9,17.1,10,978.97,17.5,74,20.22,0.0,1004.87,327.5
2018-08-24 09:10,50.6304433333333,-96.9807683333333,15.8,17.7,12,979.01,17.5,74,20.23,0.0,1004.91,327.5
2018-08-24 09:20,50.6304416666667,-96.9807716666667,15.5,18.8,13,979.10,17.5,75,20.22,0.0,1005.00,327.5
2018-08-24 09:30,50.63044,-96.980775,16.1,18.1,14,979.11,17.4,74,20.21,0.0,1005.03,327.5
2018-08-24 09:40,50.63044,-96.980775,15.8,18.8,14,979.25,17.3,75,20.21,0.0,1005.18,327.5
2018-08-24 09:50,50.63044,-96.980775,16.3,18.9,13,979.30,17.1,75,20.20,0.0,1005.24,327.5
2018-08-24 10:00,50.63044,-96.9807766666667,15.6,18.4,17,979.38,17.1,75,20.20,0.0,1005.33,360.0
2018-08-24 10:10,50.63044,-96.9807766666667,15.5,17.7,19,979.45,17.0,75,20.19,0.0,1005.41,360.0
2018-08-24 10:20,50.63044,-96.9807766666667,14.6,17.1,22,979.55,16.9,75,20.19,0.0,1005.52,360.0
2018-08-24 10:30,50.63044,-96.9807766666667,15.3,17.3,19,979.50,16.8,75,20.19,0.0,1005.47,360.0
2018-08-24 10:40,50.63044,-96.980775,14.5,17.0,20,979.51,16.9,77,20.17,0.0,1005.48,360.0
2018-08-24 10:50,50.6304383333333,-96.980775,15.4,17.5,19,979.57,16.7,76,20.16,0.0,1005.56,360.0
2018-08-24 11:00,50.6304383333333,-96.9807733333333,15.1,17.2,18,979.61,16.5,77,20.15,0.0,1005.60,18.9
2018-08-24 11:10,50.6304383333333,-96.9807733333333,15.5,17.4,17,979.51,16.5,77,20.15,0.0,1005.49,18.9
2018-08-24 11:20,50.6304366666667,-96.9807733333333,15.4,17.5,17,979.49,16.5,78,20.16,0.0,1005.48,18.9
2018-08-24 11:30,50.6304316666667,-96.980785,15.1,17.7,21,979.58,16.5,78,20.16,0.0,1005.58,18.9
2018-08-24 11:40,50.6304333333333,-96.9807933333333,15.7,18.0,11,979.57,16.5,79,20.14,0.0,1005.58,18.9
2018-08-24 11:50,50.63043,-96.9807783333333,15.1,17.5,14,979.66,16.4,79,20.12,0.0,1005.68,18.9
2018-08-24 12:00,50.63043,-96.9807766666667,14.6,17.5,18,979.78,16.4,79,20.11,0.0,1005.80,159.9
2018-08-24 12:10,50.63043,-96.9807766666667,14.3,15.8,29,979.93,16.4,79,20.10,0.0,1005.96,159.9
2018-08-24 12:20,50.63043,-96.9807766666667,14.0,16.1,31,979.98,16.5,80,20.11,0.0,1006.02,159.9
2018-08-24 12:30,50.63043,-96.980775,13.0,15.3,30,979.98,16.5,81,20.09,0.0,1006.01,159.9
2018-08-24 12:40,50.63043,-96.9807733333333,12.8,14.9,33,980.04,16.5,81,20.07,0.0,1006.08,159.9
2018-08-24 12:50,50.63043,-96.9807716666667,12.6,15.0,25,980.02,16.4,81,20.03,0.0,1006.07,159.9
2018-08-24 13:00,50.63043,-96.98077,12.8,15.1,26,980.02,16.4,82,20.03,0.0,1006.07,360.0
2018-08-24 13:10,50.63043,-96.98077,13.4,15.4,24,980.03,16.4,83,20.05,0.0,1006.09,360.0
2018-08-24 13:20,50.63043,-96.9807683333333,14.0,16.3,25,980.10,16.4,82,20.04,0.0,1006.16,360.0
2018-08-24 13:30,50.63043,-96.9807683333333,14.3,16.5,19,980.13,16.3,82,20.05,0.0,1006.19,360.0
2018-08-24 13:40,50.63043,-96.9807683333333,14.7,17.2,17,980.11,16.3,82,20.05,0.0,1006.18,360.0
2018-08-24 13:50,50.63043,-96.9807666666667,14.6,17.3,18,980.03,16.2,83,20.03,0.0,1006.09,360.0
2018-08-24 14:00,50.63043,-96.9807666666667,14.8,17.2,19,980.11,16.2,82,20.01,0.0,1006.19,360.0
2018-08-24 14:10,50.6304316666667,-96.9807666666667,15.4,17.7,14,980.18,16.1,82,20.01,0.0,1006.25,360.0
2018-08-24 14:20,50.6304533333333,-96.98079,15.8,18.5,8,980.21,16.0,82,20.00,0.0,1006.29,360.0
2018-08-24 14:30,50.630435,-96.9807533333333,16.3,18.0,11,980.25,15.9,81,20.00,0.0,1006.34,360.0
2018-08-24 14:40,50.6304416666667,-96.980765,15.9,18.2,12,980.28,15.8,81,20.00,0.0,1006.37,360.0
2018-08-24 14:50,50.6304416666667,-96.9807666666667,15.3,18.0,18,980.40,15.9,81,20.00,0.0,1006.49,360.0
2018-08-24 15:00,50.63044,-96.9807683333333,14.8,17.8,13,980.43,15.9,82,19.99,0.0,1006.53,360.0
2018-08-24 15:10,50.6304383333333,-96.980765,14.8,17.4,11,980.41,15.7,81,19.98,0.0,1006.51,360.0
2018-08-24 15:20,50.6304383333333,-96.980765,14.6,17.3,17,980.44,15.7,81,19.98,0.0,1006.54,360.0
2018-08-24 15:30,50.6304383333333,-96.9807666666667,15.2,17.5,18,980.42,15.7,81,19.98,0.0,1006.53,360.0
2018-08-24 15:40,50.6304383333333,-96.9807666666667,15.2,18.7,14,980.39,15.8,82,19.98,0.0,1006.49,360.0
2018-08-24 15:50,50.6304383333333,-96.9807666666667,14.4,17.1,17,980.40,15.9,82,19.99,0.0,1006.50,360.0
2018-08-24 16:00,50.6304383333333,-96.9807666666667,14.1,17.6,18,980.35,16.0,82,19.99,0.0,1006.46,360.0
2018-08-24 16:10,50.63044,-96.9807666666667,12.9,14.9,23,980.44,16.0,82,19.97,0.0,1006.54,360.0
2018-08-24 16:20,50.6304316666667,-96.9807783333333,12.0,14.2,26,980.55,16.0,80,19.96,0.0,1006.66,360.0
2018-08-24 16:30,50.630435,-96.98078,11.9,14.4,15,980.67,16.1,81,19.96,0.0,1006.79,360.0
2018-08-24 16:40,50.6304383333333,-96.98077,12.0,14.6,14,980.63,16.2,81,19.96,0.0,1006.74,360.0
2018-08-24 16:50,50.6304383333333,-96.9807683333333,11.4,13.6,11,980.63,16.2,80,19.95,0.0,1006.74,360.0
2018-08-24 17:00,50.6304383333333,-96.9807666666667,11.1,13.3,14,980.73,16.3,80,19.96,0.0,1006.84,360.0
2018-08-24 17:10,50.6304366666667,-96.980765,10.7,12.9,14,980.83,16.4,80,19.96,0.0,1006.94,360.0
2018-08-24 17:20,50.6304466666667,-96.9807866666667,10.7,13.3,16,980.92,16.4,79,19.95,0.0,1007.03,360.0
2018-08-24 17:30,50.6304466666667,-96.9807883333333,11.2,14.6,10,980.92,16.4,79,19.95,0.0,1007.03,360.0
2018-08-24 17:40,50.6304466666667,-96.9807883333333,12.0,14.9,8,980.78,16.5,79,19.95,0.0,1006.88,360.0
2018-08-24 17:50,50.6304433333333,-96.9807866666667,12.7,15.5,5,980.56,16.6,78,19.94,0.0,1006.64,360.0
2018-08-24 18:00,50.6304433333333,-96.9807866666667,13.8,16.3,7,980.42,16.7,78,19.94,0.0,1006.49,270.0
2018-08-24 18:10,50.6304433333333,-96.980785,13.6,15.8,4,980.48,16.9,79,19.94,0.0,1006.55,270.0
2018-08-24 18:20,50.630445,-96.9807833333333,13.0,16.3,4,980.55,17.0,78,19.94,0.0,1006.61,270.0
2018-08-24 18:30,50.630445,-96.9807833333333,14.2,17.1,358,980.57,17.0,76,19.95,0.0,1006.63,270.0
2018-08-24 18:40,50.630445,-96.9807816666667,13.3,16.8,6,980.50,17.1,76,19.94,0.0,1006.54,270.0
2018-08-24 18:50,50.630445,-96.9807816666667,12.7,15.3,6,980.51,17.4,75,19.92,0.0,1006.55,270.0
2018-08-24 19:00,50.630435,-96.9807766666667,12.5,14.8,7,980.50,17.5,75,19.91,0.0,1006.52,192.6
2018-08-24 19:10,50.6304483333333,-96.9807833333333,12.9,15.0,9,980.42,17.6,74,19.92,0.0,1006.43,192.6
2018-08-24 19:20,50.6304433333333,-96.9807516666667,13.0,14.9,8,980.41,17.7,75,19.94,0.0,1006.42,192.6
2018-08-24 19:30,50.6304433333333,-96.9807733333333,13.3,15.7,7,980.36,17.9,73,19.95,0.0,1006.36,192.6
2018-08-24 19:40,50.6304433333333,-96.980775,13.8,16.0,4,980.34,18.0,72,19.96,0.0,1006.32,192.6
2018-08-24 19:50,50.6304333333333,-96.980775,13.5,15.7,9,980.27,18.3,73,19.96,0.0,1006.24,192.6
2018-08-24 20:00,50.6304266666667,-96.9807916666667,14.8,16.6,11,980.28,18.3,73,19.97,0.0,1006.24,223.0
2018-08-24 20:10,50.6304283333333,-96.9807783333333,14.5,16.6,10,980.35,18.5,73,19.98,0.0,1006.29,223.0
2018-08-24 20:20,50.63043,-96.98077,14.4,16.7,10,980.27,18.7,73,19.98,0.0,1006.20,223.0
2018-08-24 20:30,50.630435,-96.9807666666667,14.9,16.8,9,980.16,18.8,72,19.99,0.0,1006.08,223.0
2018-08-24 20:40,50.6304383333333,-96.980765,14.8,16.9,9,980.14,18.9,72,20.00,0.0,1006.05,223.0
2018-08-24 20:50,50.6304383333333,-96.9807666666667,14.9,16.7,12,980.12,19.0,73,20.00,0.0,1006.02,223.0
2018-08-24 21:00,50.63044,-96.9807666666667,14.6,16.2,13,980.15,19.1,74,20.00,0.0,1006.03,90.0
2018-08-24 21:10,50.6304416666667,-96.9807683333333,15.5,17.3,11,980.18,19.3,73,20.02,0.0,1006.05,90.0
2018-08-24 21:20,50.6304416666667,-96.98077,15.1,17.1,12,980.18,19.4,74,20.03,0.0,1006.04,90.0
2018-08-24 21:30,50.6304416666667,-96.98077,15.8,17.4,11,980.03,19.6,74,20.04,0.0,1005.87,90.0
2018-08-24 21:40,50.6304416666667,-96.98077,15.3,17.5,11,979.94,19.6,72,20.04,0.0,1005.77,90.0
2018-08-24 21:50,50.6304416666667,-96.9807716666667,13.6,15.4,12,979.99,19.8,71,20.04,0.0,1005.81,90.0
2018-08-24 22:00,50.6304383333333,-96.980775,12.0,13.7,10,980.00,20.0,71,20.05,0.0,1005.80,360.0
2018-08-24 22:10,50.63044,-96.98077,11.9,13.9,6,979.97,20.1,70,20.05,0.0,1005.76,360.0
2018-08-24 22:20,50.63044,-96.9807666666667,10.8,13.3,6,980.04,20.3,69,20.05,0.0,1005.82,360.0
2018-08-24 22:30,50.6304383333333,-96.9807633333333,9.6,11.7,9,980.06,20.4,71,20.06,0.0,1005.82,360.0
2018-08-24 22:40,50.6304383333333,-96.980765,9.5,11.1,8,980.02,20.4,70,20.06,0.0,1005.78,360.0
2018-08-24 22:50,50.63044,-96.9807666666667,8.8,10.5,5,980.06,20.5,67,20.07,0.0,1005.81,360.0
2018-08-24 23:00,50.6304516666667,-96.9807833333333,8.2,10.3,4,980.06,20.7,67,20.08,0.0,1005.80,360.0
2018-08-24 23:10,50.6304483333333,-96.9807816666667,8.1,9.7,5,980.09,20.8,67,20.08,0.0,1005.82,360.0
2018-08-24 23:20,50.6304566666667,-96.980775,7.9,9.1,10,980.05,20.8,70,20.09,0.0,1005.78,360.0
2018-08-24 23:30,50.630445,-96.980765,8.0,9.4,10,980.04,20.6,73,20.09,0.0,1005.76,360.0
